Wind_Speed
17 18 18 18 21 21 23 24 25 22 20 18 16 14 15 14 16 19 18 9 7 12 7 10 16 14 11 14 13 12 10 15 10 13 12 18 14 11 5 2 13 3 1 14 17
18 18 18 18 19 21 22 23 23 21 19 16 14 13 12 14 17 21 9 10 13 16 10 17 18 16 16 14 13 12 13 13 10 9 16 11 6 9 4 1 11 7 10 17 18
18 18 17 18 19 20 20 22 22 18 17 14 12 12 10 12 13 2 5 7 13 15 12 13 12 15 17 12 15 17 14 1 13 9 15 13 8 14 5 7 12 13 21 20 18
17 16 16 17 18 19 19 20 18 16 15 12 10 10 8 8 4 8 6 6 15 17 11 11 13 15 13 11 17 12 9 7 7 13 13 14 14 22 17 20 36 20 23 20 19
17 16 16 17 17 18 18 18 16 14 12 10 8 8 7 6 11 6 0 9 16 17 12 12 13 14 10 13 14 10 7 2 2 5 10 14 20 7 14 13 20 25 21 20 18
17 15 16 16 16 17 17 16 14 12 10 7 7 6 6 11 1 1 3 11 11 13 12 12 7 9 9 12 13 11 7 6 7 7 5 10 9 13 9 16 22 22 21 19 18
17 14 15 15 16 16 15 14 12 11 8 5 5 6 9 15 0 3 2 8 12 13 11 11 7 7 4 7 5 6 8 11 11 13 8 12 8 11 10 17 20 19 19 17 17
17 14 14 14 15 15 13 11 10 9 6 4 5 6 9 5 5 8 8 7 12 13 11 6 10 10 9 2 7 10 11 13 13 12 6 14 14 9 11 18 19 20 18 17 15
17 15 14 14 14 14 11 7 8 7 5 4 4 4 7 6 5 4 10 4 7 11 9 6 7 11 8 11 9 8 7 9 10 13 11 15 17 12 13 14 17 17 18 16 16
17 15 14 13 13 12 7 4 5 5 6 6 6 6 9 7 3 3 6 8 7 11 8 6 10 8 10 10 8 7 12 14 13 10 12 10 15 11 15 16 17 19 18 17 16
17 16 15 13 13 9 5 2 3 4 11 13 2 8 3 3 4 5 7 6 9 12 7 7 6 8 7 9 9 13 9 12 14 6 10 9 11 13 14 16 17 17 17 17 15
17 16 14 13 12 10 11 8 6 4 8 18 18 14 12 4 6 7 6 7 7 10 12 8 16 10 6 5 5 5 6 12 7 9 9 9 10 10 13 16 16 17 16 17 15
19 17 14 14 12 15 15 16 3 6 7 12 15 12 7 9 12 12 11 13 8 13 12 10 3 5 6 8 8 5 9 11 12 12 14 11 13 12 10 11 11 15 17 16 16
21 18 16 13 10 10 14 12 9 9 5 11 10 9 8 8 10 5 7 4 4 5 5 3 9 5 3 5 3 10 3 10 3 9 14 16 13 21 17 16 14 16 14 15 16
22 19 18 13 6 11 4 5 6 4 5 17 14 8 8 12 9 11 7 5 12 6 7 11 10 12 11 3 5 12 7 6 7 12 5 15 9 15 13 15 15 16 17 17 18
24 21 19 21 22 14 5 5 5 5 7 8 10 11 11 13 8 14 12 8 4 6 11 13 1 3 5 2 3 4 5 6 7 10 7 16 12 14 15 15 16 18 19 20 21
25 23 24 23 9 11 11 8 6 9 7 12 16 14 15 11 10 11 16 14 11 11 11 9 8 4 6 6 5 9 9 8 8 8 10 3 6 12 7 7 14 20 23 22 22
26 25 26 25 12 9 11 8 12 14 13 4 15 14 13 10 11 11 16 17 17 13 10 12 9 12 9 10 4 9 13 9 6 6 10 7 7 3 10 3 6 22 22 23 24
26 24 28 32 24 13 14 10 14 9 11 10 12 13 14 10 6 12 14 16 15 13 13 8 6 6 2 3 7 7 8 7 5 3 7 12 16 11 6 5 9 20 23 25 25
24 25 30 31 29 12 10 15 20 3 6 12 16 16 15 15 11 14 12 5 6 5 6 1 3 3 5 5 5 8 3 4 5 4 9 5 5 5 6 6 10 17 23 25 25
21 12 20 28 26 14 12 16 17 10 9 12 17 13 14 13 14 15 10 8 6 8 6 6 7 7 4 10 11 7 10 7 4 2 4 4 2 7 3 2 9 15 22 24 25
26 11 21 32 17 19 15 22 12 11 10 9 7 9 12 12 13 11 13 6 8 8 10 6 5 5 13 5 5 10 8 10 5 6 2 3 7 3 4 3 8 11 18 21 24
31 18 21 32 13 13 19 22 14 11 12 12 11 9 9 11 10 12 11 6 6 8 5 6 7 8 7 6 7 9 11 9 4 1 8 3 3 6 6 4 6 11 17 22 25
29 10 13 19 31 18 24 19 17 9 9 13 11 10 11 8 6 8 8 4 5 5 0 1 11 10 10 6 2 12 13 12 13 7 9 10 13 7 10 7 7 10 15 21 24
32 14 21 16 21 21 20 19 22 12 11 14 11 15 12 8 9 8 9 6 6 6 6 4 7 12 14 6 6 8 10 13 17 16 13 12 13 8 7 7 8 9 12 17 21
23 22 28 28 33 20 20 22 23 18 15 14 10 15 12 9 11 10 11 9 7 10 8 5 4 2 5 8 8 11 12 14 14 17 17 17 16 15 12 6 9 8 11 15 19
24 19 31 26 22 18 17 20 22 15 3 4 11 9 10 6 8 11 9 4 3 7 10 5 4 4 4 3 4 6 16 16 16 16 14 16 15 9 3 5 10 10 10 14 17
Wind_Direction
283 290 294 301 304 310 313 312 308 310 311 308 307 303 296 300 297 294 280 252 230 206 197 192 195 206 216 223 227 231 256 246 226 181 166 121 120 95 122 155 196 274 106 137 152
282 287 293 299 303 308 310 309 308 310 309 306 304 299 300 308 303 286 282 237 211 201 187 183 189 197 212 216 210 220 231 253 50 93 168 133 133 179 127 170 235 154 112 133 144
276 283 291 297 303 306 308 309 306 309 304 304 305 300 309 316 312 271 290 241 187 171 179 191 203 202 227 212 214 218 265 138 163 88 155 146 194 165 96 328 198 151 143 142 140
272 281 292 297 302 303 308 306 303 305 300 301 301 300 309 313 310 343 304 211 180 165 192 202 198 212 231 206 212 254 255 273 131 125 128 154 195 159 82 187 250 146 143 142 143
271 281 290 295 300 302 306 304 302 300 294 294 291 295 306 276 263 339 172 159 174 177 193 192 202 217 223 209 203 232 156 266 252 142 147 272 39 106 150 120 120 133 138 141 147
267 277 287 293 297 302 304 301 300 294 286 280 285 286 302 265 250 298 37 180 178 179 195 204 224 236 248 208 203 188 254 175 175 169 172 220 151 106 81 110 125 139 144 146 149
266 273 284 291 295 299 301 298 295 284 277 273 276 286 271 232 237 228 208 192 196 193 205 217 232 238 305 223 240 221 201 170 175 176 198 213 149 88 124 132 139 145 144 147 150
264 268 280 286 292 296 295 293 286 274 268 262 267 293 260 249 245 236 222 238 214 212 227 252 240 262 267 336 205 214 207 182 166 182 181 211 123 131 151 145 152 144 146 150 151
262 264 273 279 286 288 288 284 276 269 253 244 287 298 269 234 256 253 215 218 196 198 210 254 207 227 222 240 190 211 192 164 172 207 167 224 124 131 162 165 149 153 156 157 161
258 261 268 275 279 277 271 267 262 250 237 256 254 261 247 210 188 202 178 159 154 169 179 203 204 224 222 215 195 164 237 167 161 170 188 215 113 140 172 173 170 172 169 167 172
250 256 262 268 271 263 224 175 268 231 225 216 260 250 131 282 219 213 172 182 143 173 183 204 232 236 183 214 270 197 185 185 124 146 225 189 149 162 175 184 184 187 181 181 181
244 249 255 260 259 236 203 218 304 337 278 233 247 259 269 273 228 209 179 234 186 234 142 196 210 237 204 187 250 250 236 115 122 173 252 197 174 162 178 195 190 197 197 194 181
237 241 244 251 248 230 212 213 281 333 249 189 228 242 233 198 220 199 193 224 213 186 207 310 92 156 191 193 229 236 217 158 176 182 231 197 169 177 184 185 210 206 204 200 189
233 233 236 235 239 225 230 216 250 291 256 165 205 214 201 215 221 193 229 239 216 177 107 294 197 202 217 215 256 264 102 220 195 197 215 209 234 187 172 183 197 202 201 193 189
230 229 229 214 179 191 151 205 218 165 236 159 167 148 177 209 220 185 201 170 244 234 220 191 176 201 209 73 292 109 237 208 210 240 243 189 255 139 241 192 188 186 190 180 172
223 224 222 210 218 181 206 143 179 230 221 167 166 185 187 211 218 175 182 220 215 245 234 255 56 301 51 100 266 130 168 213 239 254 252 260 225 173 189 209 180 180 180 174 169
220 219 222 217 208 207 182 160 208 216 156 169 189 187 203 180 187 203 191 196 214 210 218 178 171 120 180 145 159 203 218 225 227 217 237 268 281 270 246 161 188 183 182 179 175
217 218 220 216 211 205 180 204 226 209 205 161 180 188 209 169 195 208 195 211 216 247 248 193 183 178 178 257 235 219 251 249 277 274 272 146 244 290 28 88 241 176 185 181 181
211 219 223 213 195 172 204 205 217 213 190 181 186 191 200 177 226 203 213 215 202 222 258 237 143 133 239 228 264 184 245 324 306 292 283 285 276 176 139 156 202 176 184 186 187
198 214 225 211 197 186 220 217 226 253 213 192 188 198 192 194 204 200 195 201 167 237 281 321 266 175 129 213 214 272 26 217 226 257 256 293 274 298 169 203 200 188 189 190 193
188 199 223 201 186 199 213 202 229 193 200 204 202 193 219 187 203 197 203 144 199 184 237 265 249 149 169 211 228 182 232 233 303 291 285 303 299 56 22 231 201 209 196 195 198
186 207 173 183 185 201 213 208 212 187 200 212 272 191 223 195 206 217 225 224 170 194 209 212 244 207 230 84 306 299 267 207 229 212 227 312 287 150 128 213 197 213 203 203 206
192 177 174 170 197 199 209 213 191 205 200 198 202 212 211 208 208 223 217 83 178 209 222 184 228 225 230 206 218 239 230 238 225 326 238 239 276 170 154 213 216 217 211 211 211
184 170 165 193 211 195 203 198 201 214 203 197 201 176 188 197 211 195 192 155 187 202 295 140 243 229 244 275 300 207 241 218 215 223 245 242 281 218 201 224 221 227 227 214 216
202 195 181 182 202 196 202 200 197 180 226 195 191 204 197 207 190 206 185 160 183 178 193 237 238 238 262 291 291 282 259 224 234 237 252 263 269 284 313 296 252 230 233 229 222
208 194 180 172 196 207 194 216 194 193 182 196 215 203 206 195 208 212 196 192 185 181 197 199 228 276 254 244 264 265 256 253 243 249 254 260 275 295 327 275 267 250 239 233 225
208 200 178 168 190 202 194 212 194 180 209 242 214 167 195 84 67 51 78 78 121 178 196 185 171 182 246 359 296 288 239 248 248 248 251 263 272 342 319 268 273 259 240 239 234
Height
1536 1536 1535 1534 1533 1530 1527 1524 1523 1520 1517 1515 1513 1511 1510 1508 1506 1504 1499 1501 1501 1502 1503 1507 1509 1510 1510 1507 1506 1505 1497 1486 1474 1481 1482 1484 1493 1500 1503 1507 1509 1502 1501 1508 1516
1534 1533 1533 1531 1529 1528 1525 1521 1520 1518 1515 1513 1511 1510 1509 1507 1503 1499 1497 1496 1498 1500 1503 1506 1507 1508 1506 1504 1504 1500 1492 1476 1478 1490 1484 1490 1495 1500 1500 1502 1504 1504 1508 1513 1518
1531 1530 1529 1529 1527 1525 1523 1519 1518 1515 1514 1511 1510 1511 1508 1506 1503 1496 1495 1495 1497 1499 1504 1506 1506 1506 1501 1500 1499 1496 1488 1480 1487 1478 1485 1494 1497 1499 1505 1513 1506 1507 1511 1517 1522
1528 1527 1527 1526 1524 1522 1520 1517 1514 1514 1512 1510 1510 1510 1508 1507 1498 1496 1494 1493 1497 1499 1504 1505 1505 1504 1499 1497 1496 1493 1489 1484 1484 1485 1489 1491 1492 1496 1518 1523 1508 1510 1515 1519 1524
1525 1525 1524 1523 1521 1519 1517 1515 1512 1512 1511 1510 1510 1510 1508 1508 1502 1497 1495 1495 1497 1500 1504 1504 1503 1501 1496 1495 1494 1495 1489 1493 1490 1489 1493 1495 1499 1493 1500 1503 1507 1513 1519 1523 1527
1522 1522 1521 1520 1518 1517 1514 1513 1511 1510 1510 1509 1510 1510 1509 1508 1500 1498 1497 1497 1498 1501 1504 1503 1501 1499 1495 1494 1492 1492 1491 1493 1494 1494 1494 1494 1494 1496 1503 1504 1509 1515 1520 1525 1527
1518 1519 1519 1517 1517 1513 1512 1512 1511 1510 1509 1509 1509 1509 1508 1502 1500 1499 1498 1499 1500 1502 1503 1503 1503 1502 1497 1494 1495 1495 1495 1494 1495 1497 1496 1497 1498 1501 1507 1508 1514 1517 1522 1526 1528
1515 1516 1516 1514 1514 1512 1509 1510 1510 1509 1508 1508 1510 1509 1505 1499 1500 1499 1499 1499 1499 1501 1503 1503 1504 1503 1500 1497 1495 1493 1489 1494 1494 1495 1495 1493 1500 1504 1508 1508 1512 1516 1521 1525 1530
1513 1513 1512 1512 1511 1511 1508 1508 1510 1509 1508 1508 1510 1511 1502 1497 1498 1498 1497 1498 1498 1500 1502 1503 1504 1503 1500 1495 1492 1489 1497 1491 1495 1492 1493 1494 1499 1505 1509 1509 1512 1518 1523 1527 1532
1510 1511 1510 1510 1509 1508 1508 1508 1509 1509 1508 1507 1509 1514 1499 1497 1496 1497 1496 1497 1498 1501 1503 1503 1501 1497 1494 1489 1501 1494 1486 1485 1490 1492 1491 1492 1497 1504 1508 1509 1513 1517 1522 1527 1530
1506 1508 1507 1507 1508 1507 1508 1510 1513 1510 1505 1500 1500 1497 1495 1496 1496 1496 1496 1497 1498 1498 1493 1499 1495 1494 1487 1486 1483 1480 1480 1483 1484 1491 1492 1493 1496 1502 1506 1509 1513 1515 1519 1524 1528
1503 1504 1504 1505 1506 1506 1506 1511 1508 1507 1499 1496 1499 1497 1495 1495 1495 1494 1495 1495 1494 1491 1493 1499 1503 1487 1480 1485 1484 1482 1482 1485 1490 1495 1497 1493 1494 1499 1504 1506 1509 1513 1517 1521 1526
1499 1500 1501 1503 1503 1503 1503 1506 1508 1505 1499 1493 1495 1495 1493 1494 1491 1489 1493 1490 1489 1488 1498 1498 1487 1489 1488 1487 1487 1483 1483 1490 1490 1494 1494 1487 1491 1500 1502 1505 1510 1512 1515 1519 1525
1495 1498 1499 1500 1503 1502 1503 1504 1506 1506 1494 1488 1491 1489 1491 1490 1489 1490 1491 1489 1489 1487 1489 1501 1490 1489 1487 1486 1485 1492 1484 1486 1488 1494 1498 1484 1496 1488 1496 1502 1508 1512 1514 1518 1522
1492 1495 1496 1500 1498 1501 1504 1505 1507 1505 1504 1477 1481 1485 1486 1487 1484 1488 1491 1491 1491 1486 1491 1492 1487 1486 1485 1485 1486 1497 1491 1487 1487 1485 1482 1483 1492 1507 1498 1497 1500 1508 1513 1517 1521
1487 1491 1494 1494 1496 1498 1499 1502 1507 1504 1495 1477 1477 1481 1484 1484 1485 1482 1489 1492 1491 1488 1487 1504 1488 1485 1482 1490 1490 1491 1491 1490 1487 1484 1501 1483 1486 1484 1486 1483 1491 1503 1510 1516 1520
1483 1485 1490 1491 1498 1496 1497 1501 1503 1496 1473 1473 1473 1474 1477 1479 1482 1483 1485 1488 1489 1500 1491 1487 1485 1490 1491 1492 1492 1490 1492 1501 1501 1499 1504 1480 1486 1480 1472 1478 1483 1498 1506 1514 1519
1479 1481 1483 1487 1492 1493 1496 1497 1493 1471 1468 1463 1466 1472 1475 1473 1477 1480 1478 1483 1479 1479 1488 1485 1499 1486 1488 1487 1488 1491 1487 1499 1513 1506 1491 1483 1493 1477 1474 1477 1485 1492 1504 1511 1517
1473 1477 1476 1479 1487 1489 1495 1491 1480 1462 1459 1465 1466 1473 1473 1473 1475 1477 1477 1474 1474 1476 1481 1479 1487 1488 1490 1490 1490 1485 1498 1486 1496 1500 1507 1490 1475 1467 1479 1484 1487 1492 1501 1508 1514
1469 1473 1470 1477 1484 1488 1486 1476 1466 1461 1459 1461 1469 1466 1472 1473 1477 1476 1476 1472 1477 1481 1479 1476 1488 1485 1492 1493 1493 1493 1487 1501 1498 1518 1516 1482 1481 1477 1480 1483 1487 1490 1498 1505 1512
1468 1471 1466 1473 1481 1485 1473 1467 1461 1464 1463 1462 1462 1465 1463 1468 1471 1473 1471 1476 1480 1481 1481 1478 1485 1491 1494 1492 1483 1493 1494 1494 1492 1498 1508 1506 1485 1475 1480 1482 1485 1488 1494 1501 1508
1461 1460 1462 1464 1476 1470 1465 1459 1460 1461 1464 1462 1461 1460 1464 1463 1470 1470 1472 1471 1480 1481 1482 1480 1482 1493 1488 1484 1486 1484 1482 1485 1503 1502 1503 1508 1496 1481 1483 1484 1486 1488 1492 1498 1504
1451 1452 1461 1461 1461 1461 1459 1456 1457 1458 1459 1461 1462 1460 1461 1464 1472 1469 1471 1483 1486 1484 1480 1484 1486 1497 1492 1489 1487 1487 1483 1484 1486 1498 1501 1513 1493 1481 1484 1486 1486 1487 1490 1495 1499
1442 1440 1454 1457 1455 1451 1453 1449 1458 1457 1455 1456 1457 1461 1464 1466 1466 1470 1473 1484 1487 1485 1488 1487 1482 1485 1492 1481 1475 1487 1482 1482 1488 1499 1496 1490 1480 1476 1478 1482 1483 1487 1487 1490 1495
1427 1421 1426 1438 1443 1443 1446 1449 1450 1453 1456 1457 1458 1459 1461 1467 1468 1471 1472 1484 1487 1489 1489 1487 1488 1481 1479 1482 1482 1480 1478 1479 1483 1482 1488 1482 1475 1470 1470 1474 1478 1482 1487 1487 1492
1414 1413 1423 1431 1441 1441 1441 1442 1443 1446 1451 1454 1452 1454 1456 1462 1465 1467 1469 1475 1476 1486 1485 1487 1487 1490 1494 1484 1486 1485 1479 1476 1475 1476 1474 1473 1474 1469 1472 1474 1479 1481 1486 1487 1490
1411 1411 1415 1427 1432 1436 1434 1438 1439 1442 1454 1449 1450 1453 1458 1463 1467 1468 1471 1472 1473 1478 1482 1486 1492 1496 1493 1496 1494 1503 1485 1476 1473 1471 1473 1478 1471 1470 1475 1479 1480 1481 1484 1486 1488